Location: Canet
(43.3261°N, 5.3723°E)
Time: 19:06:14
(UTC+00:00)

Cosmos 1655 Rocket - Pass Details

Date: 24 January 2021
Orbit: 971 x 1005 km, 83.0° (Epoch: 07 March)

Event Time Altitude Azimuth Distance (km) Brightness Sun altitude
Rises 19:36:16 0° 195° (SSW) 3,664 7.1 -31.9°
Reaches altitude 10° 19:38:48 10° 198° (SSW) 2,717 6.4 -32.4°
Enters shadow 19:44:15 61° 244° (WSW) 1,100 4.3 -33.4°
Exits shadow 19:53:29 - 6° (N) 3,587 7.0 -35.1°
Sets 19:53:39 0° 6° (N) 3,650 7.0 -35.1°
